Location: Crescent
(42.8242°N, 73.7329°W)
Time: 07:24:24
(UTC+00:00)

Vanguard 3 - Pass Details

Date: 13 November 2024
Orbit: 507 x 3221 km, 33.4° (Epoch: 04 December)

Event Time Altitude Azimuth Distance (km) Brightness Sun altitude
Rises 22:29:58 0° 273° (W) 5,689 13.1 -10.6°
Reaches altitude 10° 22:34:56 10° 264° (W) 4,179 12.3 -11.5°
Maximum altitude 22:43:13 28° 212° (SSW) 2,166 9.8 -13.0°
Drops below altitude 10° 22:48:34 10° 154° (SSE) 2,622 9.6 -14.0°
Sets 22:50:57 0° 142° (SE) 3,297 10.0 -14.4°
